User: anonymous
Location: Niverville
(49.6028°N, 97.0419°W)
Time: 09:45:24
(UTC-05:00)
Language:

BREEZE-M DEB (TANK) - Orbit

View from above orbital plane
View from above orbital plane
View from above satellite
View from above satellite

Ground track
Ground track

The orbit data is extracted from the following two-line orbital elements,

1 33374U 08044B   14204.45800450  .00000948  00000-0  46769-3 0  6840
2 33374 049.4789 305.6673 5445560 170.2258 348.7028 04.84217391102494
Epoch (UTC): 23 July 2014 10:59:31
Eccentricity: 0.5445560
inclination: 49.4789°
perigee height: 343 km
apogee height: 16417 km
right ascension of ascending node: 305.6673°
argument of perigee: 170.2258°
revolutions per day: 4.84217391
mean anomaly at epoch: 348.7028°
orbit number at epoch: 10249

The dashed part of the orbit path shows where the satellite is in the earth's shadow,  

DLR